Regional Weather Roundup
Issued by NWS

Home | Current Version | Previous Version | Text Only | Print | Product List | Glossary On
Versions: 1 2 3 4 5 6 7 8 9 10 11 12 13 14 15 16 17 18 19 20 21 22 23 24 25 26 27 28 29 30 31 32 33 34 35 36 37 38 39 40 41 42 43 44 45 46 47 48 49 50
000
ASUS45 KPSR 141510
RWRAZ

ARIZONA REGIONAL HOURLY WEATHER ROUNDUP
NATIONAL WEATHER SERVICE PHOENIX AZ
800 AM MST MON JUL 14 2014

NOTE: FAIR INDICATES FEW OR NO CLOUDS BELOW 12,000 FEET WITH NO
SIGNIFICANT WEATHER AND/OR OBSTRUCTIONS TO VISIBILITY.

AZZ001>003-036-141600-
NORTHWEST ARIZONA

CITY           SKY/WX    TMP DP  RH WIND       PRES   REMARKS
BULLHEAD CITY  CLOUDY    90 N/A N/A SW7       29.97F
KINGMAN        PTSUNNY   77  61  57 SE16      30.14F
$$

AZZ004>008-015-016-018-141600-
NORTH CENTRAL ARIZONA

CITY           SKY/WX    TMP DP  RH WIND       PRES   REMARKS
WILLIAMS       CLOUDY    63  57  82 NW6       30.44R
PRESCOTT       CLOUDY    70  61  73 N5        30.25R
FLAGSTAFF      PTSUNNY   66  56  70 NE10      30.39R
PAYSON         MOSUNNY   73  59  60 VRB5      30.28R
PAGE           CLOUDY    81  53  37 W5        30.22R
$$

AZZ009>014-017-141600-
NORTHEAST ARIZONA

CITY           SKY/WX    TMP DP  RH WIND       PRES   REMARKS
WINSLOW        CLOUDY    70  59  68 E6        30.27R
SAINT JOHNS    CLOUDY    68  60  75 SE3       30.32R
WINDOW ROCK    PTSUNNY   67  54  63 CALM      30.40R
SHOW LOW       PTSUNNY   66  52  59 NE7       30.37R
$$

AZZ023-141600-
GREATER PHOENIX AREA

CITY           SKY/WX    TMP DP  RH WIND       PRES   REMARKS
PHOENIX        PTSUNNY   85  68  56 SE5       29.98R
BUCKEYE          N/A     82  72  69 S3        30.00R
GLENDALE       MOSUNNY   82  73  74 S7        30.00R
LUKE AFB       NOT AVBL
DEER VALLEY    MOSUNNY   84  68  58 S6        30.00R
SCOTTSDALE     MOSUNNY   82  70  66 CALM      30.02R
MESA-FALCON    MOSUNNY   82  68  61 SE9       30.00R
MESA-GATEWAY     N/A     81  68  65 SE8       30.03R
CHANDLER       PTSUNNY   82  72  69 VRB5      30.01R
$$

AZZ027-028-141600-
SOUTHWEST MARICOPA COUNTY AND PINAL COUNTY

CITY           SKY/WX    TMP DP  RH WIND       PRES   REMARKS
CASA GRANDE    MOSUNNY   81  70  69 CALM      30.03R
GILA BEND      MOSUNNY   86  64  48 S8        30.00S
$$

AZZ503-504-507>509-141600-
SOUTHEAST ARIZONA

CITY           SKY/WX    TMP DP  RH WIND       PRES   REMARKS
TUCSON         SUNNY     80  66  62 S9        30.11S
DAVIS-MONTHAN  PTSUNNY   80  67  63 S5        30.10S
NOGALES        SUNNY     75  63  66 SE5       30.18S
SIERRA VISTA   PTSUNNY   73  63  68 CALM      30.23S
DOUGLAS        SUNNY     72  65  78 SE3       30.21R
SAFFORD        MOSUNNY   78  64  61 S8        30.12R
$$

AZZ020-021-025-026-031-141600-
SOUTHWEST ARIZONA

CITY           SKY/WX    TMP DP  RH WIND       PRES   REMARKS
YUMA           PTSUNNY   88  66  48 SE7       29.94R
$$

CAZ031-033-041-043-047-048-061-141600-
SOUTHERN CALIFORNIA

CITY           SKY/WX    TMP DP  RH WIND       PRES   REMARKS
DOWNTOWN L.A.  CLOUDY    70  63  78 CALM      29.94S
L.A. AIRPORT   CLOUDY    71  63  75 VRB5      29.95R
SAN DIEGO      CLOUDY    69  62  78 S6        29.99R
BURBANK        CLOUDY    70  62  76 SE5       29.95R
ONTARIO        CLOUDY    71  62  73 NW3       29.96R
RIVERSIDE      CLOUDY    72  62  71 CALM      29.96R
PALM SPRINGS   PTSUNNY   87  71  58 E7        29.97R
EL CENTRO NAS  PTSUNNY   87  73  62 E14       29.91R
IMPERIAL       PTSUNNY   86  73  65 SE10      29.91R
BLYTHE         PTSUNNY   89  66  46 S12       29.96R
NEEDLES        CLOUDY    91  62  37 SE5       29.98R
$$

NVZ020-UTZ003-141600-
SOUTHERN NEVADA-UTAH

CITY           SKY/WX    TMP DP  RH WIND       PRES   REMARKS
LAS VEGAS      CLOUDY    89  53  29 S10       30.01R
SALT LAKE CITY MOSUNNY   87  46  24 SE8       30.11R
$$

NMZ009-TXZ055-141600-
NEW MEXICO-WEST TEXAS

CITY           SKY/WX    TMP DP  RH WIND       PRES   REMARKS
ALBUQUERQUE    MOSUNNY   70  56  61 S3        30.33R
EL PASO        PTSUNNY   79  59  50 NW12      30.18R
$$


........................KEY........................
SKY/WX - SKY CONDITION/WEATHER
TMP    - TEMPERATURE IN FAHRENHEIT
DP     - DEW POINT IN FAHRENHEIT
RH     - RELATIVE HUMIDITY IN PERCENT
WIND   - DIRECTION AND SPEED IN MILES PER HOUR (MPH)
VRB    - VARIABLE WIND DIRECTION
PRES   - MEAN SEA LEVEL PRESSURE IN INCHES OF MERCURY
         F - FALLING PRESSURE   R - RISING PRESSURE
         S - STEADY PRESSURE
VSB    - VISIBILITY IN MILES
HX     - HEAT INDEX IN FAHRENHEIT
WCI    - WIND CHILL INDEX IN FAHRENHEIT
TC     - TEMPERATURE IN CELSIUS WHICH IS ALSO KNOWN AS
         TEMPERATURE IN CENTIGRADE
AFB    - AIR FORCE BASE
         LUKE AFB IS LUKE AIR FORCE BASE
         DAVIS-MONTHAN IS DAVIS-MONTHAN AIR FORCE BASE
NAS    - NAVAL AIR STATION
         EL CENTRO NAS IS EL CENTRO NAVAL AIR STATION
N/A    - NOT AVAILABLE


USA.gov is the U.S. government's official web portal to all federal, state and local government web resources and services.